Volver al catálogo

COSMOS 2382

GLONASS

LostNavegaciónMEO
NORAD 26987·PAYLOAD·🇷🇺 Russia

Lanzado Dec 1, 2001 desde Baikonur Cosmodrome

Loading…

Próximos Pases (próximas 24 horas)

TLE

ObsoletoSource: Space-Track

Época: Aug 6, 2026, 09:50 UTC

1 26987U 01053A   26218.41016875 -.00000002  00000-0  00000+0 0  9994
2 26987  64.1209  55.6663 0003498 196.1489 344.4848  2.13104799192024

Sigue COSMOS 2382 en tiempo real con AllMySat

Download on the App Store